Location: Campo Alegre
(10.1673°N, 67.4431°W)
Time: 06:51:15
(UTC+00:00)

IUS-13 SRM-1 - Visible Passes

Search period start: 22 July 2024 00:00
Search period end: 01 August 2024 00:00
Orbit: 238 x 21409 km, 26.9° (Epoch: 19 July)

Date Brightness Start Highest point End Pass type
(mag) Time Alt. Az. Time Alt. Az. Time Alt. Az.
23 Jul 6.6 18:18:42 10° WNW 22:59:18 85° SW 23:19:58 10° SE visible
24 Jul 6.2 19:41:31 10° WNW 00:03:48 66° SW 00:16:58 19° SE visible
25 Jul 6.1 21:41:42 10° WNW 01:04:34 44° SW 01:13:00 26° S visible
27 Jul 6.5 01:17:19 10° WNW 02:03:22 24° WSW 02:08:51 20° SSW visible
27 Jul 6.2 08:50:14 10° SSE 08:55:30 14° ESE 09:06:52 10° E visible
28 Jul 5.9 09:44:50 10° SSW 09:53:15 34° SE 10:54:14 10° ENE visible
30 Jul 6.5 18:45:43 10° WNW 23:17:53 69° SW 23:36:23 10° SE visible
